| time (UTC) | temp F | wind direction | speed knots | gust knots | rain 1hr in | rain 24hr in | rain mn in | humidity % | barometer mb |
| 20260504214601 | 77 | 277 | 7.8 | 6.1 | 0.00 | 0.00 | 0.00 | ||
| 20260504213554 | 78 | 269 | 9.6 | 10.4 | 0.00 | 0.00 | 0.00 | ||
| 20260504212550 | 77 | 240 | 4.3 | 2.6 | 0.00 | 0.00 | 0.00 | ||
| 20260504211545 | 78 | 198 | 4.3 | 1.7 | 0.00 | 0.00 | 0.00 | ||
| 20260504210540 | 78 | 257 | 9.6 | 12.2 | 0.00 | 0.00 | 0.00 | ||
| 20260504205538 | 78 | 222 | 5.2 | 6.1 | 0.00 | 0.00 | 0.00 | ||
| 20260504204533 | 78 | 248 | 5.2 | 9.6 | 0.00 | 0.00 | 0.00 | ||
| 20260504203527 | 79 | 238 | 7.0 | 4.3 | 0.00 | 0.00 | 0.00 | ||
| 20260504202522 | 78 | 253 | 8.7 | 9.6 | 0.00 | 0.00 | 0.00 | ||
| 20260504201517 | 78 | 229 | 7.8 | 6.1 | 0.00 | 0.00 | 0.00 | ||
| 20260504200521 | 78 | 250 | 7.0 | 3.5 | 0.00 | 0.00 | 0.00 | ||
| 20260504195522 | 78 | 264 | 8.7 | 11.3 | 0.00 | 0.00 | 0.00 | ||
| 20260504194505 | 78 | 211 | 8.7 | 7.0 | 0.00 | 0.00 | 0.00 | ||
| 20260504193501 | 78 | 242 | 11.3 | 6.1 | 0.00 | 0.00 | 0.00 | ||
| 20260504192455 | 78 | 221 | 7.8 | 2.6 | 0.00 | 0.00 | 0.00 | ||
| 20260504191452 | 78 | 222 | 5.2 | 1.7 | 0.00 | 0.00 | 0.00 | ||
| 20260504190444 | 78 | 260 | 6.1 | 4.3 | 0.00 | 0.00 | 0.00 | ||
| 20260504184434 | 77 | 262 | 7.8 | 7.8 | 0.00 | 0.00 | 0.00 | ||
| 20260504183430 | 78 | 276 | 4.3 | 4.3 | 0.00 | 0.00 | 0.00 | ||
| 20260504182427 | 77 | 269 | 7.8 | 8.7 | 0.00 | 0.00 | 0.00 | ||
| 20260504181421 | 77 | 277 | 7.0 | 6.1 | 0.00 | 0.00 | 0.00 | ||
| 20260504180418 | 76 | 266 | 9.6 | 8.7 | 0.00 | 0.00 | 0.00 | ||
| 20260504175410 | 76 | 264 | 8.7 | 7.0 | 0.00 | 0.00 | 0.00 | ||
| 20260504174405 | 76 | 260 | 7.8 | 7.8 | 0.00 | 0.00 | 0.00 | ||
| 20260504173357 | 76 | 269 | 7.8 | 7.8 | 0.00 | 0.00 | 0.00 | ||
| 20260504172359 | 76 | 287 | 4.3 | 4.3 | 0.00 | 0.00 | 0.00 | ||
| 20260504171345 | 76 | 274 | 7.0 | 5.2 | 0.00 | 0.00 | 0.00 | ||
| 20260504170340 | 76 | 252 | 5.2 | 3.5 | 0.00 | 0.00 | 0.00 | ||
| 20260504160307 | 72 | 262 | 3.5 | 6.1 | 0.00 | 0.00 | 0.00 | ||
| 20260504150241 | 67 | 270 | 7.0 | 6.1 | 0.00 | 0.00 | 0.00 | ||
| 20260504141205 | 64 | 259 | 7.0 | 8.7 | 0.00 | 0.00 | 0.00 | ||
| 20260504140159 | 63 | 262 | 7.8 | 4.3 | 0.00 | 0.00 | 0.00 | ||
| 20260504130126 | 60 | 257 | 7.8 | 11.3 | 0.00 | 0.00 | 0.00 | ||
| 20260504081834 | 52 | 174 | 3.5 | 0.9 | 0.00 | 0.00 | 0.00 | ||
| 20260504080829 | 52 | 228 | 0.9 | 3.5 | 0.00 | 0.00 | 0.00 | ||
| 20260504050750 | 50 | 259 | 4.3 | 6.1 | 0.00 | 0.00 | 0.00 | ||
| 20260504050603 | 50 | 259 | 4.3 | 6.1 | 0.00 | 0.00 | 0.00 | ||
| 20260504044554 | 49 | 170 | 0.0 | 0.0 | 0.00 | 0.00 | 0.00 | ||
| 20260504043549 | 49 | 273 | 1.7 | 1.7 | 0.00 | 0.00 | 0.00 | ||
| 20260504042544 | 49 | 225 | 2.6 | 1.7 | 0.00 | 0.00 | 0.00 | ||
| 20260504041539 | 48 | 229 | 2.6 | 2.6 | 0.00 | 0.00 | 0.00 | ||
| 20260504040529 | 48 | 153 | 0.0 | 0.0 | 0.00 | 0.00 | 0.00 | ||
| 20260504035520 | 48 | 153 | 0.0 | 0.0 | 0.00 | 0.00 | 0.00 | ||
| 20260504034507 | 49 | 153 | 0.0 | 0.0 | 0.00 | 0.00 | 0.00 | ||
| 20260504033457 | 49 | 236 | 0.0 | 0.0 | 0.00 | 0.00 | 0.00 | ||
| 20260504032450 | 48 | 236 | 0.0 | 0.0 | 0.00 | 0.00 | 0.00 | ||
| 20260504031444 | 49 | 236 | 0.0 | 0.0 | 0.00 | 0.00 | 0.00 | ||
| 20260504030438 | 47 | 236 | 0.0 | 0.0 | 0.00 | 0.00 | 0.00 | ||
| 20260504025432 | 47 | 236 | 0.0 | 0.0 | 0.00 | 0.00 | 0.00 | ||
| 20260504024421 | 50 | 236 | 0.0 | 0.0 | 0.00 | 0.00 | 0.00 | ||
| 20260504023414 | 48 | 236 | 0.0 | 0.0 | 0.00 | 0.00 | 0.00 | ||
| 20260504022405 | 48 | 236 | 0.0 | 0.0 | 0.00 | 0.00 | 0.00 | ||
| 20260504021341 | 49 | 236 | 0.0 | 0.0 | 0.00 | 0.00 | 0.00 | ||
| 20260504020337 | 48 | 236 | 0.0 | 0.0 | 0.00 | 0.00 | 0.00 | ||
| 20260504015329 | 49 | 236 | 0.0 | 0.0 | 0.00 | 0.00 | 0.00 | ||
| 20260504014322 | 49 | 236 | 0.0 | 0.0 | 0.00 | 0.00 | 0.00 | ||
| 20260504011303 | 51 | 236 | 0.0 | 0.0 | 0.00 | 0.00 | 0.00 | ||
| 20260504010246 | 51 | 236 | 0.0 | 0.0 | 0.00 | 0.00 | 0.00 | ||
| 20260504005232 | 51 | 236 | 0.0 | 0.0 | 0.00 | 0.00 | 0.00 | ||
| 20260504004213 | 51 | 236 | 0.0 | 0.0 | 0.00 | 0.00 | 0.00 | ||
| 20260504003207 | 51 | 236 | 0.0 | 0.0 | 0.00 | 0.00 | 0.00 | ||
| 20260504002157 | 52 | 236 | 0.0 | 0.0 | 0.00 | 0.00 | 0.00 | ||
| 20260504001150 | 54 | 269 | 0.0 | 0.0 | 0.00 | 0.00 | 0.00 | ||
| 20260504000148 | 55 | 269 | 0.0 | 0.0 | 0.00 | 0.00 | 0.00 | ||
| 20260503235136 | 57 | 210 | 0.0 | 0.0 | 0.00 | 0.00 | 0.00 | ||
| 20260503234128 | 57 | 262 | 0.0 | 0.0 | 0.00 | 0.00 | 0.00 | ||
| 20260503233122 | 58 | 252 | 0.0 | 1.7 | 0.00 | 0.00 | 0.00 | ||
| 20260503232115 | 58 | 243 | 1.7 | 2.6 | 0.00 | 0.00 | 0.00 | ||
| 20260503231108 | 59 | 307 | 0.0 | 1.7 | 0.00 | 0.00 | 0.00 | ||
| 20260503230059 | 60 | 274 | 0.9 | 1.7 | 0.00 | 0.00 | 0.00 | ||
| 20260503225052 | 61 | 23 | 3.5 | 0.9 | 0.00 | 0.00 | 0.00 | ||
| 20260503224046 | 63 | 304 | 0.9 | 0.0 | 0.00 | 0.00 | 0.00 | ||
| 20260503223038 | 63 | 240 | 5.2 | 5.2 | 0.00 | 0.00 | 0.00 | ||
| 20260503222032 | 64 | 307 | 4.3 | 4.3 | 0.00 | 0.00 | 0.00 | ||
| 20260503221027 | 65 | 295 | 2.6 | 3.5 | 0.00 | 0.00 | 0.00 | ||
| 20260503220024 | 65 | 280 | 2.6 | 3.5 | 0.00 | 0.00 | 0.00 |